Location: La Sioule Rivi�re
(46.3664°N, 3.3197°E)
Time: 12:29:50
(UTC+00:00)

Cosmos 1455 - Pass Details

Date: 29 October 2020
Orbit: 500 x 521 km, 82.5° (Epoch: 23 November)

Event Time Altitude Azimuth Distance (km) Brightness Sun altitude
Rises 17:51:43 0° 169° (S) 2,597 5.7 -13.6°
Reaches altitude 10° 17:53:54 10° 162° (SSE) 1,721 4.7 -13.9°
Maximum altitude 17:57:25 39° 93° (E) 782 2.6 -14.5°
Drops below altitude 10° 18:01:00 10° 24° (NNE) 1,748 4.6 -15.2°
Sets 18:03:14 0° 16° (NNE) 2,644 5.6 -15.5°
